sat.trackr.live / text

‹ back to catalog

STARLINK-32599

NORAD 62048 · 2024-216S

PAYLOAD ACTIVE UNKNOWN

§ Identity

Operator
Country
US
Launch date
2024-11-21
Launch site
AFETR
Launch vehicle
Mass (kg)
RCS (m²)

Purposes: comms

External: N2YO · Heavens-Above · Gunter

§ Orbital elements

Epoch: 2026-05-25T03:24:06.354144Z

Period
94.27 min
Inclination
42.9995°
Eccentricity
0.0001405
Mean motion
15.27584835 rev/d
Perigee alt
482.1 km
Apogee alt
484.0 km
Semi-major
6,861.2 km
B*
4.8648e-4
RAAN
191.8543°
Arg perigee
261.9640°
Mean anomaly
98.1052°
Rev number
8,548

§ Raw data

STARLINK-325991 62048U 24216S   26145.14174021  .00013151  00000+0  48648-3 0  99962 62048  42.9995 191.8543 0001405 261.9640  98.1052 15.27584835 85487

JSON: /api/v1/satellites/62048 · /tle

For live sub-satellite position, see the globe view (requires WebGL).

§ Visibility from observer

Set your observer location to see the next 7 days of passes ≥ 10°. The values pass through the URL so the page stays shareable.

No JS? Fill the form by hand. The geolocation button needs JavaScript.